Location: Esp�s Alto
(42.4476°N, 0.5876°E)
Time: 15:22:33
(UTC+00:00)

BREEZE-M R/B - Pass Details

Date: 22 October 2019
Orbit: 308 x 4553 km, 49.7° (Epoch: 11 November)

Event Time Altitude Azimuth Distance (km) Brightness Sun altitude
Exits shadow 03:43:48 44° 354° (N) 1,179 4.4 -29.1°
Maximum altitude 03:43:58 44° 359° (N) 1,194 4.4 -29.0°
Drops below altitude 10° 03:52:13 10° 70° (ENE) 3,866 8.1 -27.6°
Sets 03:57:07 0° 76° (ENE) 5,627 9.3 -26.7°
